#timestamp,LO_Frequency,Hit,StdDev 
1687316415.1,286047001.5,N
1687316416.0,286047001.5,N
1687316435.8,286047001.3,N
1687316455.6,286047001.8,N
1687316475.5,286047001.7,N
1687316495.3,286047004.3,Y
1687316515.1,286047000.1,P
1687316535.9,286047002.3,P
1687316555.7,286047002.4,N
1687316575.6,286047000.1,N
1687316595.4,286046999.7,N
1687316615.2,286047002.7,N
1687316635.1,286047002.4,N
1687316636.0,286047002.4,N
1687316655.8,286046999.7,N
1687316675.6,286047002.7,N
1687316695.5,286047002.7,N
1687316715.3,286047002.2,N
1687316735.2,286047001.5,N
1687316755.9,286047001.6,N
1687316775.7,286047002.5,N
1687316795.6,286047002.3,N
1687316815.4,286046999.8,N
1687316835.2,286047002.4,N
1687316855.1,286046999.7,N
1687316856.0,286046999.7,N
1687316875.8,286047000.2,N
1687316895.7,286047000.0,N
1687316915.5,286047000.6,N
1687316935.3,286047000.3,N
1687316955.2,286047000.5,N
1687316975.0,286047000.9,N
1687316975.9,286047000.9,N
1687316995.7,286047000.3,N
1687317015.6,286047000.1,N
1687317035.4,286047000.5,N
1687317055.3,286047000.2,N
1687317075.1,286047000.5,N
1687317095.9,286047000.3,N
1687317115.7,286046999.9,N
1687317135.5,286047000.0,N
1687317155.4,286047000.7,N
1687317175.2,286046999.9,N
1687317195.1,286047000.4,N
1687317196.0,286047000.4,N
1687317215.8,286046999.9,N
1687317235.6,286046999.8,N
1687317255.5,286047000.1,N
1687317275.3,286047002.7,Y
1687317295.2,286047000.0,P
1687317315.9,286047000.5,N
1687317335.7,286047000.3,N
1687317355.5,286047000.3,N
1687317375.4,286047001.0,Y
1687317395.2,286047000.7,P
1687317415.0,286047000.0,N
1687317415.9,286047000.0,N
1687317435.8,286047000.8,N
1687317455.6,286047000.9,N
1687317475.5,286047000.9,N
1687317495.3,286047000.5,N
1687317515.1,286046999.9,N
1687317535.9,286047000.2,N
1687317555.7,286047001.0,N
1687317575.5,286047000.2,N
1687317595.4,286047000.0,N
1687317615.2,286046999.9,N
1687317635.1,286046999.8,N
1687317636.0,286046999.8,N
1687317655.8,286046999.9,N
1687317675.6,286047000.4,N
1687317695.5,286047001.0,N
1687317715.3,286046999.9,N
1687317735.1,286046999.9,N
1687317755.9,286047000.0,N
1687317775.7,286047000.9,N
1687317795.6,286047000.0,N
1687317815.4,286047001.0,N
1687317835.2,286046998.8,N
1687317855.1,286046998.8,N
1687317856.0,286046998.8,N
1687317875.8,286046998.3,N
1687317895.6,286046998.7,N
1687317915.5,286046998.4,N
1687317935.3,286046999.2,N
1687317955.2,286046998.9,N
1687317975.9,286046996.8,Y
1687317995.8,286046996.9,P
1687318015.6,286046996.7,N
1687318035.4,286046997.4,N
1687318055.3,286046997.8,N
1687318075.1,286046997.5,N
1687318095.8,286046997.2,N
1687318115.7,286046998.9,N
1687318135.5,286046999.1,N
1687318155.4,286046999.0,N
1687318175.2,286046998.5,N
1687318195.0,286046997.0,Y
1687318196.0,286046997.0,P
1687318215.8,286046999.5,N
1687318235.6,286046996.9,P
1687318255.5,286046999.6,N
1687318275.3,286046996.8,N
1687318295.1,286046997.3,N
1687318315.9,286046997.4,N
1687318335.7,286046995.4,Y
1687318355.6,286046999.3,P
1687318375.4,286046999.6,N
1687318395.2,286046998.8,N
1687318415.1,286047000.8,N
1687318416.0,286047000.8,N
1687318435.8,286047000.3,N
1687318455.7,286047000.4,N
1687318475.5,286047001.1,N
1687318495.3,286046998.8,N
1687318515.2,286046998.2,N
1687318535.0,286046999.1,N
1687318535.9,286046999.1,N
1687318555.7,286046999.3,N
1687318575.6,286046998.4,N
1687318595.4,286046998.5,N
1687318615.3,286047000.7,N
1687318635.1,286047000.7,N
1687318636.0,286047000.7,N
1687318655.8,286046998.1,N
1687318675.7,286046998.7,N
1687318695.5,286046996.9,Y
1687318715.3,286046998.1,P
1687318735.2,286046998.3,N
1687318755.0,286046998.2,N
1687318755.9,286046998.2,Y
1687318775.8,286047000.4,P
1687318795.6,286047000.6,N
1687318815.4,286047001.0,N
1687318835.3,286046999.7,N
1687318855.1,286047002.6,N
1687318875.9,286046999.9,N
1687318925.7,286046999.9,E
1687318935.6,286047000.2,N
1687318955.5,286046999.8,P
1687318975.3,286047000.9,P
1687318995.1,286046999.7,N
1687319015.9,286047000.6,N
1687319035.7,286047001.0,N
1687319055.5,286046998.4,Y
1687319075.4,286046999.5,P
1687319095.2,286046998.8,N
1687319115.0,286046998.5,N
1687319116.0,286046998.5,N
1687319135.8,286046998.5,N
1687319155.6,286046998.8,N
1687319175.5,286046998.4,N
1687319195.3,286047000.8,N
1687319215.1,286046998.5,N
1687319235.9,286046998.8,N
1687319255.7,286046998.8,N
1687319275.1,286046998.4,N
1687319276.0,286046998.4,N
1687319295.8,286047001.1,N
1687319315.7,286046998.3,N
1687319335.5,286046998.4,N
1687319355.3,286046999.3,N
1687319375.2,286046999.6,N
1687319395.0,286046997.6,N
1687319395.9,286046997.6,N
1687319415.8,286046998.7,N
1687319435.6,286046998.8,N
1687319455.4,286046998.3,N
1687319475.3,286046996.8,Y
1687319495.1,286047001.1,P
1687319515.9,286046998.9,N
1687319535.7,286046998.4,N
1687319555.5,286047000.8,N
1687319575.4,286046998.3,N
1687319595.2,286046998.9,N
1687319615.1,286047001.1,N
1687319616.0,286047001.1,N
1687319635.8,286047000.8,N
1687319655.6,286046999.4,N
1687319675.5,286046999.4,N
1687319695.3,286046999.4,N
1687319715.1,286046998.3,N
1687319735.9,286047000.8,N
1687319755.7,286047000.9,N
1687319775.6,286047000.3,N
1687319795.4,286046998.7,N
1687319815.2,286047000.7,N
1687319835.1,286046999.0,N
1687319836.0,286046999.0,N
1687319855.8,286047000.0,N
1687319875.6,286046998.1,N
1687319895.5,286046999.3,N
1687319915.3,286046997.5,N
1687319935.2,286046995.4,Y
1687319955.9,286046997.4,P
1687319975.7,286046997.0,N
1687320025.6,286046995.1,E
